Regional Weather Roundup
Issued by NWS Green Bay, WI

Home | Current Version | Previous Version | Graphics & Text | Print | Product List | Glossary Off
Versions: 1 2 3 4 5 6 7 8 9 10 11 12 13 14 15 16 17 18 19 20 21 22 23 24 25 26 27 28 29 30 31 32 33 34 35 36 37 38 39 40 41 42 43 44 45 46 47 48 49 50

000
ASUS43 KGRB 290010
RWRGRB

NORTH-CENTRAL AND NORTHEAST WISCONSIN REGIONAL WEATHER ROUNDUP
NATIONAL WEATHER SERVICE GREEN BAY WI
600 PM CST SUN DEC 28 2014

WIZ005-009-010>012-018-019-290100-
NORTH CENTRAL WISCONSIN

CITY           SKY/WX    TMP DP  RH WIND       PRES   REMARKS
IRONWOOD       CLOUDY     7   0  72 W6        30.18R WCI  -3
MANITOWISH WTR PTCLDY     1   0  94 CALM      30.17R
ARBOR VITAE    PTCLDY     9   6  89 N3        30.16R
EAGLE RIVER    PTCLDY     7   2  79 N5        30.15R WCI  -1
LAND O LAKES   FLURRIES   9   5  86 NW3       30.15S
RHINELANDER    PTCLDY     9   5  84 NW5       30.15R WCI   1
PHILLIPS       CLEAR      9   4  81 N5        30.17R WCI   1
ANTIGO         CLOUDY    16  11  83 N9        30.15R WCI   4
TOMAHAWK         N/A      9   6  86 CALM      30.18R
MERRILL        PTCLDY    15  10  83 N3        30.18R
$$

WIZ013-073-290100-
NORTHEAST WISCONSIN

CITY           SKY/WX    TMP DP  RH WIND       PRES   REMARKS
IRON MOUNTAIN    N/A      9   4  80 NW5       30.16R WCI   1
MARINETTE      CLOUDY    21  12  68 NW6       30.19R
OCONTO         CLOUDY    23  13  65 NW6       30.20R
$$

WIZ017-030-035>037-045-290100-
CENTRAL WISCONSIN

CITY           SKY/WX    TMP DP  RH WIND       PRES   REMARKS
MEDFORD        CLEAR      8   6  91 NW3       30.17R
WAUSAU         PTCLDY    15  12  88 W6        30.17R WCI   6
MOSINEE        CLOUDY    16  14  93 W6        30.19R WCI   7
MARSHFIELD     MOCLDY    16  11  80 NW3       30.19R
WISC RAPIDS    CLOUDY    20  13  74 NW7       30.22R
STEVENS POINT  FLURRIES  18  14  84 NW5       30.20R
WAUPACA        FLURRIES  26  19  74 NW7       30.20R
SHAWANO        CLOUDY    24  18  76 W3        30.20R
CLINTONVILLE   FLURRIES  23  18  80 NW6       30.19R
$$

WIZ038-039-048-051-290100-
FOX VALLEY

CITY           SKY/WX    TMP DP  RH WIND       PRES   REMARKS
NWS GREEN BAY  CLOUDY    25  17  72 NW9       30.20R
APPLETON       CLOUDY    27  18  69 NW8       30.19R
OSHKOSH        CLOUDY    28  18  66 NW7       30.18R
FOND DU LAC    CLOUDY    28  19  69 CALM      30.18R
$$

WIZ022-050-052-290100-
EAST CENTRAL WISCONSIN

CITY           SKY/WX    TMP DP  RH WIND       PRES   REMARKS
STURGEON BAY   CLOUDY    25  12  58 NW16      30.19R
MANITOWOC      CLOUDY    27  22  81 W5        30.19R
SHEBOYGAN      CLOUDY    27  19  72 N3        30.18R
$$

LMZ563-521-522-541>543-290100-
LAKESHORE

STATION/POSITION TIME  TEMP    WIND        PRES    VSBY  WAVE
                       AIR SEA DIR/SP/G                  HT/PER
                 (UTC) (F)     (DEG/KT/KT) (MB)    (MI)  (FT/S)
SHEBOYGAN LKSHOR 0000   27 36  340/  3/  4 1023.7R
KEWAUNEE LKSHORE 0000   26     310/  7/ 10 1021.1R
ALGOMA MARINA    0000          330/ 10/ 12   N/A
NORTHPORT PIER   0000   25     290/  6/ 18 1022.0R
SISTER BAY LKSHO 2300          340/ 16/ 19   N/A
CHAMBERS ISLAND  0000   24     260/  7/ 14 1022.4R
MENOMINEE LKSHOR 0000   24     300/ 11/ 17 1023.0R
$$


USA.gov is the U.S. government's official web portal to all federal, state and local government web resources and services.